When you browse on this site, cookies collect data to enhance your experience and personalize the content and advertising you see.
Visit our Privacy Policy to learn more. By continuing to use the site, you agree to this use of cookies and data.
  • In Latvia
  • List of Countries
  • For 7 days
  • Water Temperature
  • Satellite Maps
  • Weather Map
  • Weather Widgets
  • user-avatar
    Login

    Hourly Weather Klagenfurt

    Today, 20 May, Monday

    Time Temperature Precipitation Wind Pressure Humidity
    00:00 +8°C° 0.2 mm 1 mps 680 mmHg 96%
    01:00 +7°C° 0.2 mm 0 mps 680 mmHg 97%
    02:00 +7°C° 0.7 mm 0 mps 680 mmHg 97%
    03:00 +8°C° 0.7 mm 1 mps 680 mmHg 96%
    04:00 +8°C° 0.7 mm 1 mps 680 mmHg 96%
    05:00 +9°C° 0.7 mm 1 mps 680 mmHg 94%
    06:00 +8°C° 0.7 mm 0 mps 680 mmHg 92%
    07:00 +9°C° 0.7 mm 0 mps 680 mmHg 90%
    08:00 +10°C° 1.6 mm 1 mps 680 mmHg 91%
    09:00 +10°C° 1.6 mm 1 mps 680 mmHg 91%
    10:00 +10°C° 1.6 mm 1 mps 680 mmHg 91%
    11:00 +11°C° 1 mm 1 mps 681 mmHg 91%
    12:00 +10°C° 1 mm 2 mps 681 mmHg 90%
    13:00 +10°C° 1 mm 2 mps 681 mmHg 90%
    14:00 +10°C° 0.7 mm 2 mps 681 mmHg 90%
    15:00 +10°C° 0.7 mm 2 mps 681 mmHg 89%
    16:00 +10°C° 0.7 mm 2 mps 681 mmHg 89%
    17:00 +9°C° 0.2 mm 2 mps 681 mmHg 90%
    18:00 +9°C° 0.2 mm 2 mps 681 mmHg 91%
    19:00 +9°C° 0.2 mm 2 mps 681 mmHg 93%
    20:00 +9°C° 0.1 mm 2 mps 681 mmHg 94%
    21:00 +9°C° 0.1 mm 1 mps 681 mmHg 96%
    22:00 +9°C° 0.1 mm 1 mps 682 mmHg 97%
    23:00 +9°C° 0.2 mm 1 mps 682 mmHg 97%

    Tomorrow, 21 May, Tuesday

    Time Temperature Precipitation Wind Pressure Humidity
    00:00 +9°C° 0.2 mm 1 mps 682 mmHg 97%
    01:00 +9°C° 0.2 mm 1 mps 682 mmHg 97%
    02:00 +9°C° 0.4 mm 1 mps 682 mmHg 97%
    03:00 +9°C° 0.4 mm 1 mps 682 mmHg 97%
    04:00 +9°C° 0.4 mm 1 mps 682 mmHg 97%
    05:00 +9°C° 0.4 mm 1 mps 682 mmHg 95%
    06:00 +10°C° 0.4 mm 1 mps 683 mmHg 93%
    07:00 +10°C° 0.4 mm 1 mps 683 mmHg 90%
    08:00 +11°C° 0.2 mm 1 mps 684 mmHg 87%
    09:00 +12°C° 0.2 mm 2 mps 684 mmHg 83%
    10:00 +13°C° 0.2 mm 2 mps 684 mmHg 79%
    11:00 +13°C° 0.2 mm 2 mps 685 mmHg 77%
    12:00 +14°C° 0.2 mm 2 mps 685 mmHg 75%
    13:00 +14°C° 0.2 mm 2 mps 685 mmHg 73%
    14:00 +14°C° 0.1 mm 2 mps 685 mmHg 72%
    15:00 +15°C° 0.1 mm 2 mps 686 mmHg 71%
    16:00 +15°C° 0.1 mm 2 mps 686 mmHg 70%
    17:00 +14°C° 0.2 mm 2 mps 686 mmHg 77%
    18:00 +13°C° 0.2 mm 2 mps 686 mmHg 83%
    19:00 +12°C° 0.2 mm 1 mps 686 mmHg 90%
    20:00 +11°C° 0.1 mm 1 mps 686 mmHg 92%
    21:00 +10°C° 0.1 mm 1 mps 686 mmHg 94%
    22:00 +9°C° 0.1 mm 1 mps 687 mmHg 96%
    23:00 +9°C° 0.4 mm 1 mps 687 mmHg 96%

    Day after tomorrow, 22 May, Wednesday

    Time Temperature Precipitation Wind Pressure Humidity
    00:00 +10°C° 0.4 mm 1 mps 687 mmHg 96%
    01:00 +10°C° 0.4 mm 1 mps 687 mmHg 96%
    02:00 +10°C° 0.3 mm 1 mps 687 mmHg 96%
    03:00 +9°C° 0.3 mm 1 mps 687 mmHg 96%
    04:00 +9°C° 0.3 mm 1 mps 687 mmHg 96%
    05:00 +10°C° 0.1 mm 1 mps 687 mmHg 94%
    06:00 +11°C° 0.1 mm 1 mps 688 mmHg 92%
    07:00 +12°C° 0.1 mm 1 mps 688 mmHg 89%
    08:00 +14°C° 0 mm 1 mps 688 mmHg 83%
    09:00 +15°C° 0 mm 1 mps 689 mmHg 76%
    10:00 +16°C° 0 mm 2 mps 689 mmHg 69%
    11:00 +17°C° 0.6 mm 2 mps 689 mmHg 69%
    12:00 +18°C° 0.6 mm 2 mps 690 mmHg 69%
    13:00 +18°C° 0.6 mm 2 mps 690 mmHg 69%
    14:00 +18°C° 1.2 mm 2 mps 690 mmHg 72%
    15:00 +18°C° 1.2 mm 1 mps 689 mmHg 74%
    16:00 +18°C° 1.2 mm 1 mps 689 mmHg 77%
    17:00 +16°C° 0.7 mm 1 mps 689 mmHg 81%
    18:00 +14°C° 0.7 mm 1 mps 689 mmHg 85%
    19:00 +13°C° 0.7 mm 1 mps 689 mmHg 89%
    20:00 +12°C° 0.3 mm 1 mps 690 mmHg 90%
    21:00 +12°C° 0.3 mm 1 mps 690 mmHg 91%
    22:00 +11°C° 0.3 mm 1 mps 691 mmHg 92%
    23:00 +10°C° 0.2 mm 1 mps 691 mmHg 93%

    23 May, Thursday

    Time Temperature Precipitation Wind Pressure Humidity
    00:00 +10°C° 0.2 mm 1 mps 691 mmHg 93%
    01:00 +9°C° 0.2 mm 1 mps 690 mmHg 94%
    02:00 +9°C° 0 mm 1 mps 690 mmHg 94%
    03:00 +8°C° 0 mm 1 mps 690 mmHg 94%
    04:00 +8°C° 0 mm 1 mps 690 mmHg 94%
    05:00 +9°C° 0 mm 1 mps 691 mmHg 89%
    06:00 +11°C° 0 mm 1 mps 691 mmHg 84%
    07:00 +12°C° 0 mm 1 mps 691 mmHg 79%
    08:00 +15°C° 0.1 mm 1 mps 692 mmHg 69%
    09:00 +19°C° 0.1 mm 1 mps 692 mmHg 59%
    10:00 +19°C° 0.1 mm 0 mps 693 mmHg 49%
    11:00 +20°C° 0.2 mm 0 mps 692 mmHg 47%
    12:00 +23°C° 0.2 mm 1 mps 692 mmHg 45%
    13:00 +23°C° 0.2 mm 1 mps 692 mmHg 42%
    14:00 +23°C° 0.2 mm 1 mps 691 mmHg 43%
    15:00 +22°C° 0.2 mm 1 mps 691 mmHg 44%
    16:00 +22°C° 0.2 mm 1 mps 691 mmHg 45%
    17:00 +20°C° 0.1 mm 1 mps 690 mmHg 57%
    18:00 +18°C° 0.1 mm 1 mps 690 mmHg 68%
    19:00 +15°C° 0.1 mm 1 mps 690 mmHg 80%
    20:00 +12°C° 0 mm 0 mps 690 mmHg 83%
    21:00 +11°C° 0 mm 0 mps 690 mmHg 87%
    22:00 +9°C° 0 mm 0 mps 690 mmHg 91%
    23:00 +9°C° 0 mm 0 mps 690 mmHg 91%

    24 May, Friday

    Time Temperature Precipitation Wind Pressure Humidity
    00:00 +8°C° 0 mm 0 mps 689 mmHg 92%
    01:00 +8°C° 0 mm 0 mps 689 mmHg 93%
    02:00 +8°C° 0 mm 0 mps 689 mmHg 94%
    03:00 +8°C° 0 mm 0 mps 689 mmHg 94%
    04:00 +7°C° 0 mm 0 mps 688 mmHg 95%
    05:00 +9°C° 0 mm 0 mps 688 mmHg 91%
    06:00 +11°C° 0 mm 0 mps 688 mmHg 87%
    07:00 +12°C° 0 mm 0 mps 689 mmHg 82%
    08:00 +15°C° 0 mm 1 mps 688 mmHg 77%
    09:00 +16°C° 0 mm 1 mps 688 mmHg 71%
    10:00 +18°C° 0 mm 1 mps 688 mmHg 65%
    11:00 +19°C° 0.1 mm 1 mps 688 mmHg 63%
    12:00 +19°C° 0.1 mm 1 mps 687 mmHg 61%
    13:00 +20°C° 0.1 mm 1 mps 687 mmHg 59%
    14:00 +20°C° 0.6 mm 1 mps 686 mmHg 63%
    15:00 +19°C° 0.6 mm 2 mps 686 mmHg 68%
    16:00 +18°C° 0.6 mm 2 mps 685 mmHg 72%
    17:00 +18°C° 0.6 mm 1 mps 685 mmHg 78%
    18:00 +16°C° 0.6 mm 1 mps 684 mmHg 84%
    19:00 +14°C° 0.6 mm 1 mps 684 mmHg 89%
    20:00 +13°C° 0.2 mm 1 mps 684 mmHg 91%
    21:00 +12°C° 0.2 mm 1 mps 683 mmHg 93%
    22:00 +10°C° 0.2 mm 0 mps 683 mmHg 95%
    23:00 +10°C° 0 mm 0 mps 683 mmHg 96%

    25 May, Saturday

    Time Temperature Precipitation Wind Pressure Humidity
    00:00 +10°C° 0 mm 0 mps 683 mmHg 96%
    01:00 +9°C° 0 mm 0 mps 682 mmHg 97%
    02:00 +9°C° 0 mm 0 mps 682 mmHg 97%
    03:00 +9°C° 0 mm 0 mps 682 mmHg 96%
    04:00 +9°C° 0 mm 0 mps 682 mmHg 96%
    05:00 +10°C° 0.1 mm 0 mps 683 mmHg 94%
    06:00 +11°C° 0.1 mm 0 mps 683 mmHg 91%
    07:00 +12°C° 0.1 mm 0 mps 683 mmHg 89%
    08:00 +14°C° 0.2 mm 0 mps 684 mmHg 82%
    09:00 +15°C° 0.2 mm 0 mps 684 mmHg 75%
    10:00 +19°C° 0.2 mm 1 mps 685 mmHg 68%
    11:00 +19°C° 1 mm 1 mps 685 mmHg 69%
    12:00 +20°C° 1 mm 1 mps 685 mmHg 69%
    13:00 +20°C° 1 mm 1 mps 685 mmHg 69%
    14:00 +19°C° 1.3 mm 1 mps 685 mmHg 74%
    15:00 +18°C° 1.3 mm 1 mps 685 mmHg 80%
    16:00 +16°C° 1.3 mm 1 mps 685 mmHg 85%
    17:00 +15°C° 1.1 mm 1 mps 685 mmHg 88%
    18:00 +13°C° 1.1 mm 0 mps 685 mmHg 90%
    19:00 +12°C° 1.1 mm 0 mps 685 mmHg 93%
    20:00 +12°C° 0.4 mm 0 mps 685 mmHg 93%
    21:00 +12°C° 0.4 mm 1 mps 685 mmHg 94%
    22:00 +12°C° 0.4 mm 1 mps 686 mmHg 95%
    23:00 +11°C° 0.2 mm 1 mps 686 mmHg 95%
    Show more